Regional Weather Roundup
Issued by NWS

Home | Current Version | Previous Version | Text Only | Print | Product List | Glossary On
Versions: 1 2 3 4 5 6 7 8 9 10 11 12 13 14 15 16 17 18 19 20 21 22 23 24 25 26 27 28 29 30 31 32 33 34 35 36 37 38 39 40 41 42 43 44 45 46 47 48 49 50
000
ASUS44 KMEG 210610
RWRTN
TENNESSEE HOURLY STATE WEATHER ROUNDUP
NATIONAL WEATHER SERVICE MEMPHIS TN
100 AM CDT SUN SEP 21 2014

TNZ002-004-019-021-049-052-054-088>092-210700-
WEST TENNESSEE

CITY           SKY/WX    TMP DP  RH WIND       PRES   REMARKS
MEMPHIS INTL   CLEAR     74  67  78 S3        30.01S
NWS MEMPHIS      N/A     71 N/A N/A MISG        N/A
JACKSON        CLEAR     71  66  84 S6        30.02S
DYERSBURG      CLEAR     72  61  68 CALM      30.01S
UNION CITY     CLEAR     66  66 100 CALM      29.98F
PARIS          CLEAR     66  63  88 SW3       30.00F
HUNTINGDON     CLEAR     66  64  93 CALM      30.01S
LEXINGTON      CLEAR     64  64 100 CALM      30.01F
SAVANNAH       CLEAR     64  64 100 CALM      30.03S
$$

TNZ008-025-027-028-033-062-065-066-210700-
NORTH MIDDLE TENNESSEE

CITY           SKY/WX    TMP DP  RH WIND       PRES   REMARKS
NASHVILLE      CLEAR     69  65  86 S3        30.02S
DICKSON        CLEAR     70  64  83 SW6       30.02F
PORTLAND       CLEAR     70  64  83 SW5       30.00F
CLARKSVILLE    CLEAR     69  65  86 S3        29.99F
LEBANON        CLEAR     66  63  90 CALM      30.00
SMYRNA         CLEAR     66  64  93 CALM      30.02F
MURFREESBORO   CLEAR     70  63  78 CALM      30.02S
COOKEVILLE       N/A     61  59  94 CALM      30.03S VSB 1/4
GALLATIN       CLEAR     67  67 100 CALM      30.02F
CROSSVILLE     CLEAR     66  59  78 SW3       30.08S
$$

TNZ061-075-076-078-094-096-097-210700-
SOUTH MIDDLE TENNESSEE

CITY           SKY/WX    TMP DP  RH WIND       PRES   REMARKS
LEWISBURG      CLEAR     64  63  97 CALM      30.03S
FAYETTEVILLE   CLEAR     64  61  88 S3        30.04F SQUALL
WINCHESTER     CLEAR     64  61  88 CALM      30.05F
MCMINNVILLE    CLEAR     63  63 100 CALM      30.04F
COLUMBIA       CLEAR     66  66 100 CALM      30.02S
SHELBYVILLE    CLEAR     64  64 100 CALM      30.04S
$$

TNZ017-018-042-046-047-210700-
NORTHEAST TENNESSEE

CITY           SKY/WX    TMP DP  RH WIND       PRES   REMARKS
TRI CITIES     CLEAR     57  54  89 CALM      30.04F
ELIZABETHTON   CLEAR     57  54  88 NE3       30.05F
$$

TNZ012-013-036-069-073-074-210700-
CENTRAL EAST TENNESSEE

CITY           SKY/WX    TMP DP  RH WIND       PRES   REMARKS
KNOXVILLE      CLEAR     65  61  87 S3        30.01F
OAK RIDGE      CLEAR     65  62  90 CALM      30.04F
GATLINBURG     CLEAR     61  57  88 CALM      30.02F
MORRISTOWN     CLEAR     63  59  88 S3        30.03F
$$

TNZ083-085-099-210700-
SOUTHEAST TENNESSEE

CITY           SKY/WX    TMP DP  RH WIND       PRES   REMARKS
CHATTANOOGA    CLEAR     67  62  84 CALM      30.03F
$$

SKY/WX REPORTED AS FAIR MEANS FEW OR NO CLOUDS BELOW
12 THOUSAND FEET.




USA.gov is the U.S. government's official web portal to all federal, state and local government web resources and services.